Brookhaven, MS

4:30 PM CST on December 08, 2016 (GMT -0600)
Brookhaven

Weather History for K1R7 - June, 2013

Change the Weather History Date:

Sunday, June 2, 2013

  Actual Average (KMCB) Record (KMCB)
Temperature  
Mean Temperature 74 °F -  
Max Temperature 82 °F 87 °F 102 °F (2011)
Min Temperature 66 °F 63 °F 51 °F (1966)
Cooling Degree Days 9    
Growing Degree Days 24 (Base 50)    
Moisture  
Dew Point 70 °F    
Average Humidity 89    
Maximum Humidity 100    
Minimum Humidity 66    
Precipitation  
Precipitation 1.80 in - - ()
Sea Level Pressure  
Sea Level Pressure 29.98 in    
Wind  
Wind Speed 4 mph (WNW)    
Max Wind Speed 14 mph    
Max Gust Speed 22 mph    
Visibility 8 miles    
Events Rain , Thunderstorm    
Averages and records for this station are not official NWS values.
T = Trace of Precipitation, MM = Missing Value Source: NWS Daily Summary

Daily Weather History Graph

Daily Weather History Graph

Search for Another Location

Airport or City:

Trip Planner

Search our weather history database for the weather conditions in past years. The results will help you decide how hot, cold, wet, or windy it might be!

Date:

Astronomy

Jun. 02, 2013 Rise Set
Actual Time 5:56 AM CDT 8:02 PM CDT
Civil Twilight 5:29 AM CDT 8:30 PM CDT
Nautical Twilight 4:55 AM CDT 9:04 PM CDT
Astronomical Twilight 4:19 AM CDT 9:40 PM CDT
Moon 2:04 AM CDT (6/2) 2:50 PM CDT (6/2)
Length of Visible Light 15h 01m
Length of Day
14h 05m
Waning Crescent, 30% of the Moon is Illuminated
Jun 2
Waning Crescent
Jun 8
New
Jun 16
First Quarter
Jun 23
Full
Jun 29
Last Quarter

Hourly Weather History & Observations

Time (CDT) Temp. Heat Index Dew Point Humidity Pressure Visibility Wind Dir Wind Speed Gust Speed Precip Events Conditions
12:15 AM 75.2 °F - 73.4 °F 94% 29.99 in 10.0 mi Calm Calm - N/A   Clear
12:35 AM 75.2 °F - 73.4 °F 94% 29.99 in 10.0 mi SSE 3.5 mph - N/A   Clear
12:55 AM 75.2 °F - 73.4 °F 94% 29.99 in 10.0 mi Calm Calm - N/A   Partly Cloudy
1:15 AM 75.2 °F - 73.4 °F 94% 29.99 in 10.0 mi Calm Calm - N/A   Mostly Cloudy
1:35 AM 75.2 °F - 73.4 °F 94% 29.98 in 10.0 mi Calm Calm - N/A   Mostly Cloudy
1:55 AM 75.2 °F - 73.4 °F 94% 29.98 in 9.0 mi SE 4.6 mph - N/A Thunderstorm Scattered Clouds
2:15 AM 75.2 °F - 73.4 °F 94% 29.98 in 9.0 mi Calm Calm - N/A Thunderstorm Scattered Clouds
2:35 AM 73.4 °F - 69.8 °F 88% 30.01 in 9.0 mi North 10.4 mph 16.1 mph N/A   Mostly Cloudy
2:55 AM 69.8 °F - 68.0 °F 94% 30.01 in 5.0 mi North 13.8 mph 21.9 mph N/A Rain Rain
3:15 AM 68.0 °F - 66.2 °F 94% 30.02 in 0.8 mi NNE 10.4 mph - 0.67 in Rain , Thunderstorm Heavy Rain
3:35 AM 68.0 °F - 66.2 °F 94% 30.02 in 1.8 mi NE 3.5 mph - 1.07 in Rain , Thunderstorm Heavy Thunderstorms and Rain
3:55 AM 66.2 °F - 66.2 °F 100% 30.02 in 1.2 mi ENE 4.6 mph - 1.20 in Rain Rain
4:15 AM 66.2 °F - 66.2 °F 100% 30.02 in 10.0 mi East 3.5 mph - N/A   Mostly Cloudy
4:35 AM 66.2 °F - 66.2 °F 100% 30.01 in 2.5 mi ESE 4.6 mph - 0.01 in Rain Light Rain
4:55 AM 66.2 °F - 66.2 °F 100% 30.03 in 3.0 mi Calm Calm - 0.05 in Rain Heavy Rain
5:15 AM 66.2 °F - 66.2 °F 100% 30.05 in 10.0 mi West 9.2 mph - 0.01 in Thunderstorm Overcast
5:35 AM 66.2 °F - 66.2 °F 100% 30.06 in 1.2 mi NW 6.9 mph - 0.12 in Rain , Thunderstorm Heavy Rain
5:55 AM 66.2 °F - 66.2 °F 100% 30.05 in 2.0 mi SE 3.5 mph - 0.45 in Rain Light Rain
6:15 AM 66.2 °F - 66.2 °F 100% 30.04 in 2.5 mi SE 4.6 mph - 0.01 in Rain Light Rain
6:35 AM 66.2 °F - 66.2 °F 100% 30.03 in 3.0 mi East 6.9 mph - 0.03 in   Overcast
6:55 AM 66.2 °F - 66.2 °F 100% 30.03 in 2.5 mi ESE 6.9 mph - 0.04 in Rain Light Rain
7:15 AM 66.2 °F - 66.2 °F 100% 30.03 in 4.0 mi SE 4.6 mph - N/A Rain Light Rain
7:55 AM 66.2 °F - 66.2 °F 100% 30.01 in 4.0 mi Calm Calm - 0.01 in Rain Light Rain
8:15 AM 68.0 °F - 66.2 °F 94% 30.01 in 8.0 mi South 5.8 mph - N/A Rain Light Rain
8:35 AM 66.2 °F - 66.2 °F 100% 30.02 in 8.0 mi South 8.1 mph - N/A   Clear
8:55 AM 66.2 °F - 66.2 °F 100% 30.01 in 10.0 mi South 8.1 mph - N/A Rain Light Rain
9:15 AM 68.0 °F - 66.2 °F 94% 30.00 in 3.0 mi South 11.5 mph - 0.01 in Rain Rain
9:35 AM 66.2 °F - 66.2 °F 100% 29.98 in 2.5 mi South 11.5 mph - 0.04 in Rain Light Rain
9:55 AM 68.0 °F - 66.2 °F 94% 29.98 in 6.0 mi SSE 5.8 mph - 0.05 in   Mostly Cloudy
10:15 AM 68.0 °F - 68.0 °F 100% 29.98 in 5.0 mi SSE 4.6 mph - N/A Rain Light Rain
10:35 AM 69.8 °F - 68.0 °F 94% 29.99 in 10.0 mi WNW 12.7 mph - N/A   Light Drizzle
10:55 AM 71.6 °F - 69.8 °F 94% 29.97 in 10.0 mi WNW 5.8 mph - N/A   Mostly Cloudy
11:15 AM 71.6 °F - 69.8 °F 94% 29.96 in 10.0 mi NW 6.9 mph - N/A   Mostly Cloudy
11:35 AM 71.6 °F - 69.8 °F 94% 29.97 in 10.0 mi NW 3.5 mph - N/A   Mostly Cloudy
11:55 AM 73.4 °F - 69.8 °F 88% 29.97 in 10.0 mi Calm Calm - N/A   Mostly Cloudy
12:15 PM 75.2 °F - 69.8 °F 83% 29.98 in 10.0 mi Calm Calm - N/A   Scattered Clouds
12:35 PM 75.2 °F - 71.6 °F 89% 29.99 in 10.0 mi WNW 6.9 mph - N/A   Mostly Cloudy
12:55 PM 78.8 °F - 69.8 °F 74% 30.00 in 10.0 mi SW 8.1 mph - N/A   Scattered Clouds
1:15 PM 77.0 °F - 69.8 °F 78% 30.00 in 10.0 mi WNW 6.9 mph - N/A   Mostly Cloudy
1:35 PM 78.8 °F - 69.8 °F 74% 29.99 in 10.0 mi West 8.1 mph - N/A   Scattered Clouds
1:55 PM 78.8 °F - 69.8 °F 74% 29.99 in 10.0 mi NW 6.9 mph - N/A   Scattered Clouds
2:15 PM 80.6 °F 83.9 °F 69.8 °F 70% 29.98 in 10.0 mi WNW 4.6 mph - N/A   Partly Cloudy
2:35 PM 78.8 °F - 69.8 °F 74% 29.98 in 8.0 mi NW 5.8 mph - N/A   Scattered Clouds
2:55 PM 80.6 °F 83.9 °F 69.8 °F 70% 29.97 in 10.0 mi NW 4.6 mph - N/A   Partly Cloudy
3:15 PM 80.6 °F 84.6 °F 71.6 °F 74% 29.96 in 10.0 mi NW 3.5 mph - N/A   Clear
3:35 PM 80.6 °F 83.9 °F 69.8 °F 70% 29.96 in 10.0 mi NNW 6.9 mph - N/A   Partly Cloudy
3:55 PM 82.4 °F 87.2 °F 71.6 °F 70% 29.96 in 10.0 mi NW 8.1 mph - N/A   Scattered Clouds
4:15 PM 80.6 °F 84.6 °F 71.6 °F 74% 29.95 in 10.0 mi North 6.9 mph - N/A   Mostly Cloudy
4:35 PM 82.4 °F 87.2 °F 71.6 °F 70% 29.95 in 10.0 mi NW 5.8 mph - N/A   Mostly Cloudy
4:55 PM 82.4 °F 87.2 °F 71.6 °F 70% 29.94 in 10.0 mi WNW 6.9 mph - N/A   Scattered Clouds
5:15 PM 82.4 °F 86.3 °F 69.8 °F 66% 29.93 in 10.0 mi Calm Calm - N/A   Clear
5:35 PM 80.6 °F 83.9 °F 69.8 °F 70% 29.93 in 10.0 mi Calm Calm - N/A   Scattered Clouds
5:55 PM 82.4 °F 86.3 °F 69.8 °F 66% 29.93 in 10.0 mi Calm Calm - N/A   Mostly Cloudy
6:15 PM 82.4 °F 86.3 °F 69.8 °F 66% 29.92 in 10.0 mi WNW 4.6 mph - N/A   Mostly Cloudy
6:35 PM 80.6 °F 83.9 °F 69.8 °F 70% 29.92 in 10.0 mi Calm Calm - N/A   Partly Cloudy
6:55 PM 80.6 °F 83.9 °F 69.8 °F 70% 29.92 in 10.0 mi Calm Calm - N/A   Clear
7:15 PM 80.6 °F 83.9 °F 69.8 °F 70% 29.91 in 10.0 mi Calm Calm - N/A   Clear
7:35 PM 80.6 °F 84.6 °F 71.6 °F 74% 29.91 in 10.0 mi Calm Calm - N/A   Clear
7:55 PM 77.0 °F - 73.4 °F 89% 29.92 in 10.0 mi Calm Calm - N/A   Clear
8:15 PM 75.2 °F - 73.4 °F 94% 29.92 in 10.0 mi Calm Calm - N/A   Clear
8:35 PM 73.4 °F - 73.4 °F 100% 29.92 in 10.0 mi Calm Calm - N/A   Clear
8:55 PM 73.4 °F - 71.6 °F 94% 29.92 in 10.0 mi Calm Calm - N/A   Clear
9:15 PM 73.4 °F - 71.6 °F 94% 29.93 in 10.0 mi Calm Calm - N/A   Clear
9:35 PM 73.4 °F - 71.6 °F 94% 29.94 in 10.0 mi Calm Calm - N/A   Clear
9:55 PM 71.6 °F - 71.6 °F 100% 29.94 in 9.0 mi Calm Calm - N/A   Clear
10:15 PM 71.6 °F - 71.6 °F 100% 29.95 in 10.0 mi Calm Calm - N/A   Clear
10:35 PM 71.6 °F - 71.6 °F 100% 29.95 in 10.0 mi Calm Calm - N/A   Clear
10:55 PM 71.6 °F - 69.8 °F 94% 29.95 in 10.0 mi Calm Calm - N/A   Clear
11:15 PM 69.8 °F - 69.8 °F 100% 29.95 in 10.0 mi Calm Calm - N/A   Clear
11:35 PM 69.8 °F - 69.8 °F 100% 29.94 in 9.0 mi Calm Calm - N/A   Clear
11:55 PM 69.8 °F - 69.8 °F 100% 29.95 in 10.0 mi Calm Calm - N/A   Clear